Location: Venise Bay
(45.0825°N, 73.1481°W)
Time: 20:41:51
(UTC-05:00)

ISS - Pass Details

Date: 06 December 2021
Orbit: 413 x 422 km, 51.6° (Epoch: 24 January)

Event Time Altitude Azimuth Distance (km) Brightness Sun altitude
Rises 16:29:22 0° 300° (WNW) 2,387 0.6 -3.7°
Reaches altitude 10° 16:31:31 10° 306° (NW) 1,518 -0.5 -4.0°
Maximum altitude 16:34:51 49° 22° (NNE) 555 -3.4 -4.5°
Drops below altitude 10° 16:38:09 10° 99° (E) 1,507 -1.4 -5.0°
Enters shadow 16:40:18 - 105° (ESE) 2,378 -0.4 -5.4°
